User: anonymous   Login
Location: Arapaho Elementary School
(32.9607°N, 96.7625°W)
Time: 12:17:00
(UTC+00:00)
Language:

Cosmos 1805 Rocket - Orbit

View from above orbital plane
View from above orbital plane
View from above satellite
View from above satellite

Ground track
Ground track

The orbit data is extracted from the following two-line orbital elements,

1 17192U 86097B   22142.88746730  .00000458  00000-0  52388-4 0  9991
2 17192  82.5076   6.2275 0015469 287.0131  83.3660 14.83764186894576
Epoch (UTC): 22 May 2022 21:17:57
Eccentricity: 0.0015469
inclination: 82.5076°
perigee height: 606 km
apogee height: 628 km
right ascension of ascending node: 6.2275°
argument of perigee: 287.0131°
revolutions per day: 14.83764186
mean anomaly at epoch: 83.3660°
orbit number at epoch: 89457

The dashed part of the orbit path shows where the satellite is in the earth's shadow,  

DLR